Sardis Lake Weather Center

Moon Phase Calendar



Sardis Lake Water Level
Online Cameras

 


      

Current Conditions in University
5/19/2024 12:23:22 PM

83°F
Feels Like 84
Clear
Humidity
51%
Pressure
30.03"
Wind
9.2 mph (NNE)
Dew Point
63°F
UV Index
9/10 (Very High)
Visibility
6 mi

Hourly Forecast

Date & Time Sun, May 19
12:00 PM
Sun, May 19
1:00 PM
Sun, May 19
2:00 PM
Sun, May 19
3:00 PM
Sun, May 19
4:00 PM
Sun, May 19
5:00 PM
Sun, May 19
6:00 PM
Sun, May 19
7:00 PM
Sun, May 19
8:00 PM
Sun, May 19
9:00 PM
Sun, May 19
10:00 PM
Sun, May 19
11:00 PM
Mon, May 20
12:00 AM
Mon, May 20
1:00 AM
Mon, May 20
2:00 AM
Mon, May 20
3:00 AM
Mon, May 20
4:00 AM
Mon, May 20
5:00 AM
Mon, May 20
6:00 AM
Mon, May 20
7:00 AM
Mon, May 20
8:00 AM
Mon, May 20
9:00 AM
Mon, May 20
10:00 AM
Mon, May 20
11:00 AM
Mon, May 20
12:00 PM
Mon, May 20
1:00 PM
Mon, May 20
2:00 PM
Mon, May 20
3:00 PM
Mon, May 20
4:00 PM
Mon, May 20
5:00 PM
Mon, May 20
6:00 PM
Mon, May 20
7:00 PM
Mon, May 20
8:00 PM
Mon, May 20
9:00 PM
Mon, May 20
10:00 PM
Mon, May 20
11:00 PM
Tue, May 21
12:00 AM
Tue, May 21
1:00 AM
Tue, May 21
2:00 AM
Tue, May 21
3:00 AM
Tue, May 21
4:00 AM
Tue, May 21
5:00 AM
Tue, May 21
6:00 AM
Tue, May 21
7:00 AM
Tue, May 21
8:00 AM
Tue, May 21
9:00 AM
Tue, May 21
10:00 AM
Tue, May 21
11:00 AM
Condition
Clear

Clear

Clear

Clear

Clear

Clear

Clear

Clear

Clear

Clear

Clear

Clear

Clear

Clear

Clear

Clear

Clear

Clear

Clear

Clouds

Clouds

Clouds

Clouds

Clouds

Clouds

Clouds

Clouds

Clouds

Clouds

Clouds

Clouds

Clouds

Clear

Clear

Clear

Clear

Clear

Clear

Clear

Clear

Clear

Clear

Clear

Clouds

Clouds

Clouds

Clouds

Clouds
Temperature 83°F84°F85°F86°F86°F86°F84°F78°F72°F70°F68°F68°F67°F66°F66°F65°F64°F64°F63°F66°F71°F76°F80°F83°F86°F87°F89°F89°F89°F87°F84°F80°F75°F73°F73°F72°F71°F70°F69°F68°F67°F66°F66°F69°F73°F77°F81°F85°F
Feels Like 84°F85°F85°F85°F86°F86°F85°F79°F73°F70°F69°F68°F67°F66°F66°F66°F65°F64°F63°F66°F71°F76°F81°F84°F86°F87°F88°F89°F89°F88°F87°F83°F76°F74°F74°F73°F71°F70°F70°F69°F68°F67°F67°F69°F74°F78°F83°F86°F
Cloudiness 0%0%0%0%0%0%0%0%1%1%2%2%1%1%0%0%1%2%1%17%100%98%65%60%67%58%13%56%53%53%52%47%5%6%4%3%3%2%0%6%7%6%7%17%99%100%100%100%
Visibility 6 mi6 mi6 mi6 mi6 mi6 mi6 mi6 mi6 mi6 mi6 mi6 mi6 mi6 mi6 mi6 mi6 mi6 mi6 mi6 mi6 mi6 mi6 mi6 mi6 mi6 mi6 mi6 mi6 mi6 mi6 mi6 mi6 mi6 mi6 mi6 mi6 mi6 mi6 mi6 mi6 mi6 mi6 mi6 mi6 mi6 mi6 mi6 mi
Precipitation 0%0%0%0%0%0%0%0%0%0%0%0%0%0%0%0%0%0%0%0%0%0%0%0%0%0%0%0%0%0%0%0%0%0%0%0%0%0%0%0%0%0%0%0%0%0%0%0%
Humidity 51%49%45%42%40%40%51%69%76%77%77%77%82%88%89%88%87%86%88%86%74%64%54%49%45%41%37%37%39%46%58%71%75%77%77%78%82%83%84%85%86%89%90%84%76%66%58%52%
Dew Point 63°F62°F61°F60°F59°F59°F64°F67°F64°F62°F61°F60°F61°F62°F62°F61°F60°F60°F59°F61°F62°F63°F62°F62°F62°F61°F59°F60°F61°F63°F68°F70°F67°F66°F65°F65°F65°F64°F64°F63°F62°F62°F63°F64°F65°F65°F65°F65°F
Pressure 30.03"30.03"30"29.97"29.94"29.91"29.91"29.91"29.91"29.91"29.94"29.91"29.94"29.94"29.94"29.94"29.94"29.91"29.91"29.94"29.97"29.97"29.97"29.94"29.94"29.91"29.91"29.88"29.88"29.88"29.88"29.88"29.88"29.91"29.91"29.91"29.91"29.91"29.88"29.88"29.91"29.91"29.91"29.94"29.94"29.94"29.94"29.94"
Wind Speed 6.1 mph6 mph5.6 mph5.1 mph5.1 mph5.2 mph4.4 mph3.4 mph3.9 mph3.3 mph3.2 mph4.1 mph4.2 mph4.1 mph3.8 mph4.2 mph4.5 mph5.4 mph5.1 mph4.1 mph4.6 mph5 mph4.5 mph7.1 mph6 mph6.1 mph4.6 mph5.4 mph4.8 mph6.3 mph4 mph2.8 mph3 mph3.5 mph3.6 mph4 mph4.5 mph4.7 mph4.8 mph4.9 mph5.4 mph5.2 mph5.2 mph6.2 mph7.5 mph9 mph9.4 mph10 mph
Wind
Direction
28°
NNE
34°
NE
34°
NE
27°
NNE
28°
NNE
35°
NE
47°
NE
57°
ENE
65°
ENE
80°
E
92°
E
87°
E
80°
E
86°
E
103°
ESE
121°
ESE
115°
ESE
116°
ESE
128°
SE
132°
SE
140°
SE
147°
SSE
163°
SSE
154°
SSE
172°
S
183°
S
183°
S
180°
S
240°
WSW
258°
WSW
243°
WSW
264°
W
141°
SE
144°
SE
131°
SE
133°
SE
142°
SE
135°
SE
131°
SE
133°
SE
148°
SSE
157°
SSE
154°
SSE
150°
SSE
154°
SSE
174°
S
172°
S
185°
S

Daily Forecast

Date High Low Precip. Humidity
Today
May 19

Clear
86 °F
63 °F
0%
51%
Monday
May 20

Clouds
89 °F
63 °F
0%
45%
Tuesday
May 21

Clouds
90 °F
66 °F
0%
47%
Wednesday
May 22

Clouds
88 °F
69 °F
0%
48%
Thursday
May 23

Rain
83 °F
69 °F
100%
64%
Friday
May 24

Rain
87 °F
68 °F
100%
45%
Saturday
May 25

Clouds
91 °F
66 °F
0%
45%
Sunday
May 26

Clear
90 °F
73 °F
16%
44%
Monday
May 27

Rain
86 °F
67 °F
100%
76%
Tuesday
May 28

Rain
79 °F
69 °F
100%
80%
Wednesday
May 29

Rain
72 °F
64 °F
100%
98%
Thursday
May 30

Clouds
78 °F
61 °F
0%
45%
Friday
May 31

Clouds
82 °F
59 °F
0%
37%
Saturday
Jun 1

Clouds
87 °F
66 °F
0%
42%
Sunday
Jun 2

Rain
86 °F
66 °F
97%
50%
Monday
Jun 3

Rain
85 °F
68 °F
20%
60%

Temperature 8-14 Day Outlook



Precipitation 8-14 Day Outlook






About Us
Contact Us
Site Map
Search Site
Advertise With Us
   
Sardis.USLakes.info
THE SARDIS LAKE WEBSITE

Copyright 2024, Lakes Online
Privacy    |    Legal